{"data":{"norad_id":58990,"intl_designator":"2024-033A","name":"INSAT-3DS","alt_names":[],"object_type":"PAYLOAD","status":"ACTIVE","operator":null,"country":"IND","launch_date":"2024-02-17","launch_site_code":"SRILR","launch_vehicle":null,"mission":null,"orbit_class":"UNKNOWN","rcs_meters":null,"size_class":null,"mass_kg":null,"dimensions":null,"purposes":["comms","earth_obs"],"wikipedia_slug":null,"has_3d_model":false,"image_url":null,"decayed_at":null,"tle_current":{"epoch":"2026-05-25T02:25:22.912032Z","epoch_age_seconds":62509,"freshness":"FRESH","line1":"1 58990U 24033A   26145.10095963 -.00000158  00000+0  00000+0 0  9997","line2":"2 58990   0.0324 250.4156 0001465 160.9870 309.6965  1.00272442 46833","mean_motion":1.00272442,"eccentricity":0.0001465,"inclination_deg":0.0324,"raan_deg":250.4156,"arg_perigee_deg":160.987,"mean_anomaly_deg":309.6965,"bstar":0,"rev_number":4683,"period_min":1436.0874945082,"perigee_km":35780.233674997,"apogee_km":35792.587887496,"semimajor_km":42164.547781247,"source":"CELESTRAK","updated_at":"2026-05-25T13:38:14.144087Z"}}}